Simultaneous Nadir Overpasses (SNOs) Predictions

Prediction of SNOs between AURA and NPP Satellite Orbit:

Table of predicted SNOs for the next 14.0 days since TLE Epoch: 5/7/2022
Index Date (AURA) Time (AURA) Lat,Lon (AURA) SZA (AURA ) Date (NPP) Time (NPP) Lat,Lon (NPP) SZA (NPP ) Distance(km) Time Diff (sec)
1 05/09/2022 11:25:31 -79.29, 84.08 104.60 05/09/2022 11:24:36 -79.30, 84.06 104.56 0.44 55
2 05/09/2022 12:14:48 79.63,-105.96 74.90 05/09/2022 12:15:10 79.64,-105.83 74.86 2.79 22
3 05/12/2022 03:41:58 -79.34,-159.76 105.35 05/12/2022 03:41:28 -79.33,-159.90 105.30 2.97 30
4 05/12/2022 04:31:15 79.67, 10.19 74.16 05/12/2022 04:32:02 79.67, 10.21 74.12 0.38 47
5 05/14/2022 19:58:22 -79.47, -43.01 106.18 05/14/2022 19:58:17 -79.46, -43.10 106.16 2.10 5
6 05/14/2022 20:47:40 79.75, 126.71 73.38 05/14/2022 20:48:52 79.75, 126.78 73.32 1.32 72
7 05/17/2022 11:25:25 79.33, -95.69 73.43 05/17/2022 11:24:28 79.32, -95.68 73.47 0.24 57
8 05/17/2022 12:14:45 -79.60, 73.86 106.99 05/17/2022 12:15:05 -79.61, 73.97 107.03 2.29 20
9 05/20/2022 03:41:47 79.44, 20.97 72.70 05/20/2022 03:41:16 79.44, 21.05 72.71 1.54 31



Historial Predications of SNOs between AURA and NPP
